Powrót do katalogu

STARLINK-37877

AktywnyŁącznośćSSO
NORAD 69335·PAYLOAD·🇺🇸 United States

Wystrzelony Jun 3, 2026 z Vandenberg Space Force Base

Loading…

Następne Przeloty (najbliższe 24 godziny)

TLE

ŚwieżeSource: CelesTrak SupGP

Epoka: Sep 14, 2026, 22:51 UTC

1 69335C 26122G   26257.95256944  .00045544  00000+0  14139-2 0  2573
2 69335  97.2824 286.6121 0001473  88.9637  17.8259 15.33413424    15

Śledź STARLINK-37877 w czasie rzeczywistym z AllMySat

Download on the App Store